TimeEST,TemperatureF,Dew PointF,Humidity,Sea Level PressureIn,VisibilityMPH,Wind Direction,Wind SpeedMPH,Gust SpeedMPH,PrecipitationIn,Events,Conditions,WindDirDegrees,DateUTC
12:21 AM,36.0,30.0,79,30.00,8.0,SSW,8.1,-,0.00,Snow,Light Snow,210,2014-01-02 05:21:00
12:46 AM,34.0,30.9,89,30.00,1.8,WSW,3.5,-,0.02,Snow,Light Snow,240,2014-01-02 05:46:00
12:53 AM,34.0,30.9,89,30.00,1.8,Calm,Calm,-,0.03,Snow,Light Snow,0,2014-01-02 05:53:00
1:01 AM,33.1,30.9,92,29.99,2.5,Calm,Calm,-,0.00,Snow,Light Snow,0,2014-01-02 06:01:00
1:11 AM,33.1,30.9,92,29.98,1.5,Calm,Calm,-,0.01,Snow,Light Snow,0,2014-01-02 06:11:00
1:31 AM,33.1,30.9,92,29.97,1.5,NNE,4.6,-,0.03,Snow,Light Snow,30,2014-01-02 06:31:00
1:48 AM,33.8,32.0,93,29.96,2.0,Calm,Calm,-,0.05,Snow,Light Snow,0,2014-01-02 06:48:00
1:53 AM,33.1,32.0,96,29.97,1.5,Calm,Calm,-,0.05,Snow,Light Snow,0,2014-01-02 06:53:00
2:01 AM,33.1,32.0,96,29.95,0.8,Calm,Calm,-,0.02,Snow,Light Snow,0,2014-01-02 07:01:00
2:21 AM,33.1,30.9,92,29.94,1.5,NE,3.5,-,0.04,Snow,Light Snow,40,2014-01-02 07:21:00
2:26 AM,33.1,30.9,92,29.94,2.0,NE,3.5,-,0.05,Snow,Light Snow,40,2014-01-02 07:26:00
2:38 AM,33.1,32.0,96,29.94,1.8,Calm,Calm,-,0.05,Snow,Light Snow,0,2014-01-02 07:38:00
2:53 AM,33.1,30.9,92,29.96,1.0,Calm,Calm,-,0.06,Snow,Light Snow,0,2014-01-02 07:53:00
3:10 AM,33.1,30.9,92,29.93,0.8,Calm,Calm,-,0.03,Snow,Light Snow,0,2014-01-02 08:10:00
3:53 AM,33.1,30.9,92,29.93,0.8,Calm,Calm,-,0.07,Snow,Light Snow,0,2014-01-02 08:53:00
4:00 AM,33.1,30.9,92,29.91,1.0,Calm,Calm,-,0.00,Snow,Light Snow,0,2014-01-02 09:00:00
4:30 AM,33.1,30.9,92,29.89,2.5,Calm,Calm,-,0.01,Snow,Light Snow,0,2014-01-02 09:30:00
4:40 AM,33.1,30.9,92,29.89,3.0,Calm,Calm,-,0.01,,Overcast,0,2014-01-02 09:40:00
4:53 AM,33.1,30.9,92,29.89,3.0,East,3.5,-,0.01,,Overcast,100,2014-01-02 09:53:00
5:23 AM,33.1,30.9,92,29.88,2.0,North,3.5,-,0.01,Snow,Light Snow,10,2014-01-02 10:23:00
5:32 AM,33.1,30.9,92,29.88,1.5,North,3.5,-,0.02,Snow,Light Snow,10,2014-01-02 10:32:00
5:53 AM,33.1,30.0,89,29.90,0.8,North,5.8,-,0.03,Snow,Light Snow,360,2014-01-02 10:53:00
6:27 AM,30.9,28.9,92,29.88,1.0,North,9.2,-,0.03,Snow,Light Snow,350,2014-01-02 11:27:00
6:53 AM,27.0,24.1,89,29.91,1.0,North,9.2,-,0.04,Snow,Light Snow,350,2014-01-02 11:53:00
7:02 AM,26.1,23.0,88,29.88,1.5,North,10.4,-,0.00,Snow,Light Snow,350,2014-01-02 12:02:00
7:22 AM,24.1,21.0,88,29.89,0.8,NNW,10.4,-,0.01,Snow,Light Snow,340,2014-01-02 12:22:00
7:31 AM,23.0,19.0,85,29.89,1.2,North,10.4,-,0.01,Snow,Light Snow,350,2014-01-02 12:31:00
7:53 AM,21.0,17.1,85,29.93,1.5,NNW,9.2,17.3,0.01,Snow,Light Snow,340,2014-01-02 12:53:00
8:23 AM,21.0,16.0,81,29.91,2.5,NNW,11.5,20.7,0.01,Snow,Light Snow,340,2014-01-02 13:23:00
8:30 AM,19.9,16.0,85,29.92,3.0,NNW,9.2,17.3,0.01,Snow,Light Snow,330,2014-01-02 13:30:00
8:36 AM,19.9,16.0,85,29.92,2.5,NNW,9.2,16.1,0.01,Snow,Light Snow,340,2014-01-02 13:36:00
8:53 AM,19.9,15.1,81,29.96,2.5,North,10.4,18.4,0.01,Snow,Light Snow,350,2014-01-02 13:53:00
9:18 AM,19.9,15.1,81,29.93,3.0,NNW,10.4,23.0,0.00,Snow,Light Snow,340,2014-01-02 14:18:00
9:53 AM,19.0,12.9,77,30.00,3.0,North,10.4,19.6,0.00,Snow,Light Snow,350,2014-01-02 14:53:00
10:51 AM,19.4,12.2,74,29.99,2.5,NNW,8.1,17.3,0.00,Snow,Light Snow,340,2014-01-02 15:51:00
10:52 AM,19.0,12.9,77,30.02,2.5,NNW,9.2,17.3,0.00,Snow,Light Snow,330,2014-01-02 15:52:00
11:04 AM,19.0,12.9,77,30.00,1.2,NNW,6.9,16.1,0.00,Snow,Light Snow,330,2014-01-02 16:04:00
11:34 AM,19.0,12.9,77,30.00,3.0,NNW,11.5,18.4,0.00,Snow,Light Snow,330,2014-01-02 16:34:00
11:53 AM,19.0,12.9,77,30.02,6.0,NNW,8.1,17.3,0.00,Snow,Light Snow,330,2014-01-02 16:53:00
12:42 PM,19.0,12.0,74,30.00,2.0,NNW,12.7,23.0,0.00,Snow,Light Snow,340,2014-01-02 17:42:00
12:53 PM,19.0,12.0,74,30.03,2.5,NNW,6.9,21.9,0.00,Snow,Light Snow,330,2014-01-02 17:53:00
1:33 PM,19.0,12.9,77,30.00,1.5,Variable,6.9,-,0.00,Snow,Light Snow,0,2014-01-02 18:33:00
1:53 PM,19.0,12.0,74,30.04,1.8,NNW,8.1,-,0.00,Snow,Light Snow,330,2014-01-02 18:53:00
2:00 PM,19.0,12.0,74,30.01,2.0,NW,9.2,-,0.00,Snow,Light Snow,320,2014-01-02 19:00:00
2:10 PM,18.0,12.0,78,30.02,1.5,NNW,9.2,16.1,0.00,Snow,Light Snow,340,2014-01-02 19:10:00
2:28 PM,18.0,12.0,78,30.02,2.0,NNW,8.1,19.6,0.00,Snow,Light Snow,330,2014-01-02 19:28:00
2:53 PM,17.1,10.9,77,30.07,1.5,NNW,10.4,19.6,0.00,Snow,Light Snow,340,2014-01-02 19:53:00
3:05 PM,17.1,10.9,77,30.05,3.0,NNW,9.2,-,0.00,Snow,Light Snow,330,2014-01-02 20:05:00
3:14 PM,17.1,10.9,77,30.05,2.0,NNW,11.5,20.7,0.00,Snow,Light Snow,330,2014-01-02 20:14:00
3:23 PM,17.1,10.9,77,30.06,1.5,NNW,9.2,19.6,0.00,Snow,Light Snow,340,2014-01-02 20:23:00
3:29 PM,17.1,10.0,74,30.06,2.0,North,13.8,23.0,0.00,Snow,Light Snow,350,2014-01-02 20:29:00
3:32 PM,17.1,10.0,74,30.06,3.0,North,16.1,23.0,0.00,Snow,Light Snow,350,2014-01-02 20:32:00
3:44 PM,17.1,10.9,77,30.07,2.5,North,11.5,-,0.00,Snow,Light Snow,350,2014-01-02 20:44:00
3:53 PM,17.1,10.9,77,30.11,1.8,NNW,10.4,19.6,0.00,Snow,Light Snow,330,2014-01-02 20:53:00
4:05 PM,17.1,10.9,77,30.09,2.0,North,11.5,19.6,0.00,Snow,Light Snow,350,2014-01-02 21:05:00
4:11 PM,17.1,10.9,77,30.09,0.8,North,13.8,21.9,0.00,Snow,Light Snow,350,2014-01-02 21:11:00
4:23 PM,17.1,10.0,74,30.10,1.5,NNW,11.5,26.5,0.00,Snow,Light Snow,340,2014-01-02 21:23:00
4:53 PM,17.1,10.0,74,30.16,1.5,North,12.7,19.6,0.00,Snow,Light Snow,350,2014-01-02 21:53:00
5:10 PM,16.0,10.0,77,30.14,2.5,North,10.4,19.6,0.00,Snow,Light Snow,350,2014-01-02 22:10:00
5:20 PM,16.0,10.9,81,30.15,1.2,NNW,8.1,18.4,0.00,Snow,Light Snow,340,2014-01-02 22:20:00
5:46 PM,16.0,10.0,77,30.17,2.5,North,9.2,18.4,0.00,Snow,Light Snow,350,2014-01-02 22:46:00
5:53 PM,16.0,10.0,77,30.20,2.5,NNW,12.7,19.6,0.00,Snow,Light Snow,340,2014-01-02 22:53:00
6:12 PM,15.1,9.0,77,30.18,3.0,Variable,6.9,18.4,0.00,Snow,Light Snow,0,2014-01-02 23:12:00
6:53 PM,15.1,9.0,77,30.25,3.0,NNW,10.4,20.7,0.00,Snow,Light Snow,340,2014-01-02 23:53:00
7:37 PM,14.0,9.0,80,30.25,3.0,North,10.4,-,0.00,Snow,Light Snow,350,2014-01-03 00:37:00
7:44 PM,14.0,8.1,77,30.25,3.0,North,10.4,17.3,0.00,Snow,Light Snow,350,2014-01-03 00:44:00
7:53 PM,14.0,8.1,77,30.30,4.0,NNW,8.1,-,0.00,Snow,Light Snow,340,2014-01-03 00:53:00
8:24 PM,12.9,7.0,77,30.28,10.0,NNW,6.9,-,0.00,,Mostly Cloudy,340,2014-01-03 01:24:00
8:53 PM,12.9,7.0,77,30.33,10.0,NNW,6.9,-,0.00,,Overcast,330,2014-01-03 01:53:00
9:53 PM,12.0,3.9,70,30.34,10.0,NW,3.5,-,N/A,,Clear,320,2014-01-03 02:53:00
10:53 PM,10.9,3.0,70,30.37,10.0,NW,3.5,-,N/A,,Clear,310,2014-01-03 03:53:00
11:53 PM,10.0,1.9,70,30.39,10.0,NW,4.6,-,N/A,,Clear,310,2014-01-03 04:53:00